Погода в Гливице

Польша     50°18′17″N   18°39′45″E
темп.,
°C
ветер,
м/с
пор.,
м/с
влажн.,
%
обл.,
%
осадки,
мм/ч
давл.,
гПа
погр.,
м
1 марта, пн
пн101:00+3ссз358574 0.0 1034469
04:00+2с2488100 0.0 1034346
07:00+2сз2386100 0.0 1035279
10:00+3ссз2382100 0.0 1036339
13:00+5ссв227090 0.0 1036616
16:00+6всв116410 0.0 1035524
19:00+4всв11755 0.0 103522
22:00+3ююв11810 0.0 103622
2 марта, вт
вт201:00+2ююз12830 0.0 103622
04:00+1ююз22840 0.0 103535
07:00+1юз23820 0.0 103584
10:00+6юз35620 0.0 1034275
13:00+10з24430 0.0 1033533
16:00+11з23460 0.0 1032365
19:00+7зюз22620 0.0 103323
22:00+5з11720 0.0 103422
3 марта, ср
ср301:00+4ююз00790 0.0 103322
04:00+3ююз11820 0.0 103222
07:00+3ююз11820 0.0 103222
10:00+7ю12620 0.0 1031238
13:00+11ююз22450 0.0 1029495
16:00+12ююз23420 0.0 1026540
19:00+8юз39579 0.0 1026256
22:00+7юз5126367 0.0 1024410
4 марта, чт
чт401:00+5юз5126933 0.0 1022359
04:00+4юз510770 0.0 1020244
07:00+3юз48809 0.0 1019210
10:00+7юз476545 0.0 1017294
13:00+11зюз465337 0.0 1015859
16:00+12зюз355481 0.0 10131358
19:00+9сз237589 0.0 1013170
22:00+8ссз2282100 0.0 1012233
5 марта, пт
пт501:00+6с2389100 1.1 1010238
04:00+6ссз1292100 1.8 1009213
07:00+5ссз2494100 2.9 1009287
10:00+3с5894100 3.4 1010491
13:00+3ссз5894100 5.4 1012497
16:00+1с6990100 1.4 1015690
19:000с5974100 1.6 10191072
22:00−1с486046 0.0 1023498